Weather Roundup
Issued by NWS Chicago, IL

Home | Current Version | Previous Version | Graphics & Text | Print | Product List | Glossary On
Versions: 1 2 3 4 5 6 7 8 9 10 11 12 13 14 15 16 17 18 19 20 21 22 23 24 25 26 27 28 29 30 31 32 33 34 35 36 37 38 39 40 41 42 43 44 45 46 47 48 49 50
000
NZUS59 KLOT 072008
HRRLOT

CHICAGO AREA WEATHER ROUNDUP
NATIONAL WEATHER SERVICE CHICAGO/ROMEOVILLE IL
200 PM CST SUN FEB 07 2016

NOTE: "FAIR" INDICATES FEW OR NO CLOUDS BELOW 12,000 FEET WITH NO
SIGNIFICANT WEATHER AND/OR OBSTRUCTIONS TO VISIBILITY.

* THESE STATIONS ARE NOT UNDER NWS QUALITY CONTROL. THEY ALSO MAY NOT
  REPORT WEATHER SUCH AS PRECIPITATION OR FOG.

ILZ005-006-012>014-019>023-072100-
NORTHEAST ILLINOIS

CITY           SKY/WX    TMP DP  RH WIND       PRES   REMARKS
OHARE          CLOUDY    42  31  64 W16G28    29.72S
MIDWAY         CLOUDY    46  31  55 W22G28    29.73F
AURORA         MOSUNNY   42  32  67 SW13      29.74F
LANSING*       CLOUDY    45  32  61 SW20G30   29.75S
JOLIET*        CLOUDY    45  33  62 SW14G20   29.76F
WAUKEGAN       MOSUNNY   40  31  70 SW16G24   29.69S
DUPAGE AIRPORT CLOUDY    41  30  65 SW20      29.72F
WHEELING       CLOUDY    42  31  64 SW15G21   29.72F
KANKAKEE*      MOSUNNY   46  34  63 SW18G26   29.78F
MORRIS*          N/A     44  33  64 SW12      29.74F
LEWIS AIRPORT* CLOUDY    42  32  66 W20       29.75F
$$

WIZ051-052-058>065-066-070>072-072100-
SOUTHEAST WISCONSIN

CITY           SKY/WX    TMP DP  RH WIND       PRES   REMARKS
MILWAUKEE      CLOUDY    44  31  60 SW15      29.65F
KENOSHA*       CLOUDY    41  31  67 SW13G23   29.67F
RACINE*        MOSUNNY   42  31  64 SW15      29.67F
BURLINGTON     SUNNY     41  31  68 SW14      29.68R
WAUKESHA       SUNNY     41  30  65 SW13G22   29.65F
$$

INZ001>003-010>013-019-020-072100-
NORTHWEST INDIANA

CITY           SKY/WX    TMP DP  RH WIND       PRES   REMARKS
GARY*          PTSUNNY   46  28  49 SW17G35   29.75S
MICHIGAN CITY* NOT AVBL
RENSSELAER*    NOT AVBL
VALPARAISO     PTSUNNY   46  32  58 SW22G29   29.75F
$$

LMZ740>746-072100-
SOUTHERN LAKE MICHIGAN

STATION/POSITION TIME  SKY/WX   TEMP WIND        PRES    VSBY
                                AIR  DIR/SP/G
                 (UTC)          (F)  (DEG/KT/KT) (MB)    (MI)
HARRISON CRIB    1900            44  220/ 18/ 22   N/A
BURNHAM HARBOR   2000            44  230/  9/ 19   N/A
CALUMET HARBOR   1900            44  210/ 15/ 22 1006.3F
BURNS HARBOR     1900            45  220/ 17/ 24 1007.8F
MICHIGAN CITY    1900            44  180/ 23/ 26   N/A
$$

ABBREVIATIONS USED IN REMARKS
   TC - TEMPERATURE IN CELSIUS
  WCI - WIND CHILL INDEX
   HX - HEAT INDEX
  VSB - VISIBILITY
$$



USA.gov is the U.S. government's official web portal to all federal, state and local government web resources and services.